Theta_e
330 331 330 329 328 327 325 326 326 327 328 329 329 330 330 330 330 329 328 327 326 324 324 324 323 323 320 319 317 307 301 298 294 292 294 294 292 290 288 288 287 287 287
328 329 330 331 330 330 330 329 328 329 329 330 331 331 331 330 330 330 329 328 326 324 325 323 322 322 318 315 310 307 300 297 295 291 292 291 291 289 288 288 287 287 287
314 317 322 325 326 326 327 328 329 330 330 331 331 330 330 330 330 329 328 326 327 325 323 322 321 318 313 310 307 302 297 295 295 293 290 290 289 288 288 287 287 287 287
307 307 308 309 310 311 313 316 319 324 326 328 328 325 326 326 326 325 324 323 320 319 320 318 316 318 314 310 304 298 294 294 293 292 291 289 289 288 288 287 287 287 287
308 308 309 309 310 310 311 312 316 321 322 322 321 320 319 318 318 319 319 317 315 314 311 313 312 308 308 309 305 296 294 292 291 291 290 289 288 288 288 288 287 287 286
308 309 309 309 309 310 310 310 311 312 313 315 316 317 317 316 315 314 313 312 312 310 310 308 307 304 305 303 301 299 297 291 290 289 289 289 288 288 288 288 287 285 285
307 307 307 307 307 308 308 309 309 309 309 309 309 309 308 308 309 309 309 309 307 306 305 305 303 303 299 299 297 296 291 292 291 290 289 289 288 289 288 287 287 286 285
306 306 305 305 306 306 306 306 306 306 306 305 305 305 304 304 305 305 305 305 304 302 302 301 300 299 298 296 295 291 292 290 289 289 288 289 288 288 288 288 287 286 284
304 303 303 303 303 303 303 303 303 303 302 302 303 304 304 305 303 302 301 300 298 298 297 297 296 296 296 295 292 292 291 290 289 289 288 288 287 287 287 287 286 285 283
301 301 301 300 301 301 301 301 301 300 300 302 302 301 300 300 299 299 297 295 295 294 294 294 294 293 293 292 293 291 289 289 289 289 288 287 287 287 287 287 286 284 283
299 299 299 298 298 298 298 298 297 297 298 299 298 298 297 296 296 294 294 293 293 293 292 292 292 291 292 291 292 290 289 289 288 288 288 287 286 286 286 285 285 285 283
296 297 296 296 296 296 296 294 294 294 295 294 294 294 293 293 293 292 292 292 292 291 290 290 290 290 291 292 291 290 289 287 287 287 286 286 285 285 285 285 285 285 285
296 295 295 295 295 294 293 292 293 293 293 292 291 291 291 291 291 291 291 291 291 291 290 289 289 290 290 290 289 289 287 287 286 285 285 285 285 286 285 285 285 285 285
294 293 292 293 292 292 292 291 290 290 290 290 290 289 289 289 290 290 290 290 290 290 290 289 289 288 288 287 287 288 287 286 286 285 285 285 285 285 284 285 284 284 283
292 291 290 290 290 290 290 289 289 289 288 288 288 288 288 288 288 289 289 289 289 289 289 289 287 287 287 287 287 287 287 287 286 285 285 285 285 285 285 285 284 283 282
290 289 289 289 289 288 288 288 288 288 288 288 287 287 287 287 287 287 288 288 288 288 288 287 287 287 286 286 286 287 287 287 286 286 285 285 285 284 284 283 284 283 282
289 288 287 286 286 286 286 286 287 287 287 286 286 286 286 286 286 286 287 287 288 288 289 288 287 287 286 286 286 286 286 286 286 286 286 285 285 285 284 283 282 282 281
285 285 285 285 286 286 285 285 285 284 284 284 285 284 284 285 285 286 286 287 287 287 287 288 288 287 287 286 286 286 286 286 285 285 285 285 285 285 284 283 282 282 281
283 284 284 284 284 283 282 284 284 284 283 282 282 283 283 283 284 284 285 285 285 285 286 286 286 286 287 287 286 286 285 285 285 285 285 285 284 284 283 283 282 281 281
281 281 282 282 282 282 282 282 281 280 279 279 280 280 281 280 280 280 281 282 283 283 283 283 284 284 285 285 286 286 285 285 285 285 284 284 284 283 282 282 281 280 280
280 280 281 281 280 279 280 279 279 278 278 277 277 276 278 276 276 277 276 277 278 279 280 280 281 282 284 284 284 284 285 285 285 285 284 284 283 281 281 280 280 279 279
279 279 279 279 278 277 277 276 276 276 275 275 275 274 274 274 274 273 273 273 273 273 274 274 275 276 277 278 278 279 279 280 282 283 282 281 281 280 279 278 278 278 277
277 277 276 276 276 275 275 275 275 274 273 273 273 273 273 272 272 272 272 272 272 272 272 271 271 271 272 272 273 274 274 275 275 276 277 278 278 278 277 277 276 276 275
274 274 274 274 273 273 273 272 272 271 271 271 271 270 269 269 269 269 269 269 269 269 270 270 269 269 269 270 270 270 271 271 272 272 272 273 274 275 275 275 274 274 273
271 272 272 271 271 270 270 270 269 269 269 268 268 267 267 267 267 267 267 267 267 267 268 268 268 268 268 268 268 269 269 269 270 270 270 270 270 271 272 272 272 272 272
269 269 269 269 268 268 267 267 266 266 266 266 266 266 266 266 266 266 266 266 266 266 266 267 267 267 267 267 267 268 268 269 269 269 269 269 269 269 270 270 270 270 270
Wind_Speed
37 40 40 41 45 45 42 45 45 42 42 41 41 41 41 42 42 42 43 41 42 42 44 44 45 44 38 34 32 28 29 25 8 9 21 23 27 24 21 18 16 15 13
35 35 38 39 37 37 39 39 37 39 40 40 41 42 42 40 41 41 43 42 42 42 44 46 47 42 37 37 33 32 33 27 17 16 21 25 26 26 21 19 16 15 14
20 22 25 28 31 33 33 33 33 34 36 37 39 39 40 40 40 39 39 41 43 42 42 43 46 44 37 34 36 32 28 27 22 21 15 26 24 25 23 19 17 16 16
16 17 18 19 20 22 22 23 22 22 24 28 28 29 29 30 31 32 33 37 40 41 39 39 42 45 45 39 37 31 32 27 28 21 20 25 22 24 23 22 17 19 17
10 11 11 11 12 14 15 16 17 16 18 19 21 19 21 23 25 28 31 33 34 36 35 34 37 42 39 39 37 33 33 31 29 24 18 15 18 16 26 20 19 17 17
9 9 9 10 11 12 12 13 15 17 19 21 24 26 26 25 24 24 26 28 30 32 34 34 34 36 35 33 31 31 33 35 33 24 22 20 26 27 24 23 19 15 6
11 10 10 10 11 10 11 11 12 14 15 15 16 18 19 20 23 24 25 26 27 30 32 33 34 33 31 29 30 31 34 31 33 39 33 29 26 30 27 22 25 17 11
12 11 10 10 9 10 11 11 12 12 12 12 13 14 17 19 19 21 22 24 25 27 27 30 30 32 31 31 28 29 30 26 31 30 29 27 23 18 22 23 20 16 14
8 7 7 7 8 9 10 10 10 10 8 10 12 14 16 17 19 20 22 22 23 24 25 25 26 28 29 29 30 31 27 28 30 28 24 23 20 20 18 20 20 16 14
6 5 4 5 5 5 7 7 7 6 7 9 10 13 14 15 16 16 16 19 21 22 23 23 23 24 26 27 30 28 26 32 31 29 24 20 19 19 21 23 21 25 13
7 7 6 5 4 4 3 1 2 4 6 8 8 9 12 13 13 13 14 18 19 19 20 22 21 20 22 23 25 27 31 29 29 30 26 24 21 21 24 24 24 25 24
7 8 8 7 6 5 5 6 5 4 5 7 9 11 12 13 13 11 11 15 18 16 18 18 19 19 21 21 22 25 32 24 24 26 25 26 28 28 31 29 27 26 28
11 10 10 9 9 8 8 6 6 5 5 6 9 10 13 13 12 11 11 11 16 20 17 16 14 13 14 19 23 27 24 27 25 21 26 31 35 33 28 27 28 29 30
16 15 13 12 12 11 10 8 7 4 3 3 3 6 9 9 9 10 10 10 12 17 17 16 14 13 14 19 23 26 25 27 26 25 24 27 30 29 29 29 27 28 29
17 16 15 15 13 12 12 10 8 6 4 5 7 7 9 12 10 8 8 9 9 11 17 15 15 16 17 17 20 22 24 25 27 27 23 25 28 28 30 31 28 24 26
20 18 17 15 15 13 10 11 10 8 6 5 6 8 11 12 12 11 11 11 8 7 11 14 13 15 16 16 19 21 25 27 27 26 27 27 26 25 27 28 29 28 28
21 19 17 15 14 14 13 10 12 11 10 10 10 8 8 9 10 11 8 9 10 9 13 12 14 14 17 19 22 23 25 28 30 29 30 30 30 29 29 27 28 30 29
20 17 16 14 12 11 11 9 10 11 11 12 11 11 11 11 10 12 10 7 8 9 11 13 15 18 20 22 24 26 26 27 29 31 31 31 30 29 27 28 29 28 27
20 18 17 15 12 11 9 8 7 8 9 10 10 10 14 13 11 10 9 8 10 11 13 15 17 20 21 22 25 27 29 28 29 29 29 29 30 30 30 28 27 28 27
17 16 15 14 12 10 6 5 5 7 7 8 10 12 16 17 16 16 14 14 14 15 16 19 20 19 20 22 24 26 28 27 28 28 29 30 30 31 31 29 29 27 28
17 17 15 12 11 9 6 5 4 5 2 5 5 8 9 10 11 11 11 11 11 11 13 14 18 20 21 23 23 24 26 27 27 28 28 31 30 27 29 28 25 26 27
13 13 12 11 9 7 5 4 4 2 1 3 5 7 9 12 12 14 14 15 16 17 17 18 19 20 21 21 22 22 19 17 17 19 21 25 26 27 28 26 25 25 24
9 10 9 8 6 5 4 3 2 2 4 5 7 10 12 12 11 12 13 15 16 18 18 18 19 22 22 23 24 24 25 23 21 20 21 23 25 26 26 25 25 24 23
5 5 5 4 4 3 2 2 3 5 6 8 10 11 12 13 15 15 16 17 18 19 19 21 22 22 22 23 23 23 24 24 24 23 21 22 22 23 25 24 23 23 23
4 4 3 3 3 3 4 5 6 6 7 7 8 10 11 12 14 15 16 17 19 19 20 20 20 21 22 23 24 24 23 23 22 20 20 21 22 22 23 24 23 22 22
6 6 6 6 6 6 6 6 5 5 6 8 9 10 11 12 14 15 16 17 18 20 20 21 21 21 21 21 21 22 21 18 16 15 15 15 16 17 19 21 21 21 20
Wind_Direction
223 227 227 231 237 238 234 238 241 242 242 244 248 249 252 255 254 252 251 249 252 252 254 253 251 247 242 229 225 229 223 215 163 180 206 207 202 206 209 214 219 224 230
235 235 237 238 238 240 240 242 244 246 249 251 256 255 255 255 256 253 252 249 251 247 253 251 249 242 230 227 219 221 219 212 196 168 190 189 197 206 210 215 217 224 234
241 243 244 246 248 250 252 255 256 256 255 259 261 261 263 263 260 255 255 257 257 255 254 253 248 237 228 223 227 216 216 212 213 192 174 192 196 202 202 212 218 229 238
233 237 242 247 252 255 257 258 259 260 261 264 261 268 266 268 266 264 267 263 262 260 257 256 253 241 234 227 221 211 211 207 215 197 188 184 191 196 206 210 215 230 236
223 229 239 244 247 250 251 251 249 245 249 256 262 264 273 275 278 277 275 269 265 266 261 260 256 249 242 231 221 210 211 203 209 199 186 179 188 185 203 213 219 227 239
219 225 231 237 240 242 244 246 247 247 246 247 248 251 251 256 261 270 279 280 277 273 272 269 261 255 241 241 232 226 224 205 207 203 196 194 200 205 205 210 203 204 234
209 215 224 231 234 239 246 252 258 261 264 266 266 265 268 269 267 266 266 268 271 272 272 269 261 250 246 230 225 231 219 225 231 224 209 208 208 212 209 207 213 222 202
203 213 223 232 240 244 250 255 260 264 269 274 280 285 285 285 279 274 269 266 263 263 267 269 264 259 241 228 221 219 231 226 229 228 230 229 231 226 221 221 231 232 240
197 209 225 233 242 249 257 263 265 265 278 287 287 286 287 289 288 288 286 275 270 271 269 265 262 254 243 225 216 223 227 229 228 232 230 230 229 229 215 208 208 202 226
180 193 214 221 229 239 242 250 260 272 277 282 285 292 297 299 301 296 288 280 274 272 272 264 255 245 243 226 225 223 224 232 227 228 230 225 221 218 218 223 225 212 208
165 167 163 165 175 180 180 205 345 313 302 302 305 308 316 317 314 306 296 276 271 274 273 268 256 237 232 236 234 237 237 245 240 230 228 229 221 223 224 227 235 232 223
145 137 131 130 125 122 114 108 86 39 346 335 344 339 343 338 328 316 295 274 271 272 275 277 271 256 246 242 239 244 246 233 238 236 230 230 230 228 230 232 239 239 242
131 116 107 104 103 99 103 87 85 80 52 9 357 349 348 351 348 331 307 281 267 274 284 283 282 273 259 253 251 246 230 230 237 225 225 230 234 238 238 240 245 249 248
128 118 111 107 100 99 95 93 97 94 79 46 26 350 345 348 352 354 336 306 268 257 268 279 279 274 269 256 245 230 231 238 235 231 233 239 243 242 241 244 241 241 239
124 121 114 106 101 98 95 94 78 64 27 10 341 335 328 317 327 329 326 318 302 284 266 263 255 255 253 240 233 236 231 237 234 239 237 241 245 243 242 245 238 225 224
122 121 112 111 108 99 89 92 82 63 41 13 1 349 347 335 326 319 314 305 299 276 239 237 240 241 232 229 228 233 235 233 235 236 238 239 239 234 235 233 228 220 224
128 124 123 111 100 94 81 74 64 79 74 38 14 17 11 352 350 347 332 308 307 296 269 253 248 243 245 244 242 238 236 237 239 238 241 240 238 237 235 229 226 225 225
120 117 108 103 100 97 89 82 70 59 44 35 35 16 8 7 5 0 356 334 324 301 290 279 271 264 255 251 248 245 244 244 242 243 244 245 246 242 234 230 229 229 231
129 123 121 118 114 101 99 82 70 63 55 42 20 24 15 18 15 10 14 359 332 320 304 290 290 289 286 272 257 251 251 249 248 248 247 247 246 241 240 239 235 229 227
124 122 125 124 125 123 114 106 69 44 43 33 23 15 2 353 5 355 354 352 339 323 317 312 306 299 289 282 277 266 258 253 251 250 249 249 247 242 240 239 235 233 228
134 133 136 138 131 130 143 114 101 97 62 28 17 1 5 354 351 348 345 333 327 325 323 325 325 316 309 297 283 270 266 263 260 256 253 253 252 245 245 246 244 238 236
126 128 134 135 137 141 126 115 123 150 229 322 334 337 341 340 342 339 337 333 327 322 319 314 308 306 308 309 305 299 305 310 297 282 272 266 263 260 259 255 249 244 237
136 139 140 141 147 144 163 192 227 286 302 305 305 306 314 318 312 309 310 311 311 311 311 311 311 310 307 303 299 297 295 295 292 291 289 281 274 265 260 254 250 243 236
149 152 155 156 164 186 231 263 284 288 289 293 297 302 309 312 312 313 315 317 316 316 316 315 314 314 312 310 307 303 297 291 287 285 280 278 275 271 264 260 252 245 239
212 209 215 226 241 253 259 267 278 286 288 291 299 301 306 312 316 318 321 322 322 321 322 321 319 318 316 313 310 306 302 298 292 286 279 275 275 272 269 261 252 246 241
252 254 255 257 260 260 264 271 281 287 295 300 301 306 311 315 318 320 321 320 320 320 322 323 322 321 319 317 315 311 307 301 301 305 297 282 276 278 273 261 255 248 241